Wind_Speed
6 6 6 7 7 7 6 6 7 5 3 4 4 6 9 5 5 7 4 3 5 2 2 2 2 2 3 2 3 4 5 5 3 3 2 1 1 2 2 2 3 4 5 6 5 4 3 1 0 1 1 2 2 2 2 3 3 3 3 3 2 2 2 2 2 2 3 3 3 4 4 5 6 7
6 5 6 7 7 7 7 6 6 5 3 4 5 5 4 4 4 4 4 6 5 2 2 2 3 2 3 1 3 6 6 5 4 4 2 1 3 2 1 2 3 4 6 6 6 5 4 3 1 2 2 3 3 3 3 3 4 4 5 5 5 4 4 3 3 3 4 4 5 5 5 5 6 6
6 6 7 8 7 7 7 5 6 6 5 5 6 5 3 4 5 3 2 2 3 1 3 2 2 1 2 2 4 4 5 4 4 4 2 2 2 1 0 3 5 5 7 8 8 7 5 4 2 1 3 4 5 5 5 5 5 5 5 6 6 6 6 6 6 5 5 5 6 6 7 7 7 7
7 9 9 8 8 8 7 6 5 4 5 6 6 5 4 6 4 2 3 4 2 2 3 1 0 1 2 3 3 4 6 5 4 5 4 0 2 1 0 4 6 6 8 10 9 8 6 4 3 1 1 2 4 4 5 6 7 8 7 7 7 7 7 8 8 8 8 7 7 7 8 8 8 8
9 10 10 10 11 10 9 7 5 5 5 7 7 6 6 7 6 4 5 5 3 3 3 2 3 4 3 3 3 4 5 5 3 4 4 1 2 3 2 3 6 7 9 9 9 8 6 4 3 2 1 1 2 2 2 3 5 7 8 8 7 7 8 8 8 9 9 9 9 9 9 9 10 10
12 11 11 11 10 9 9 8 7 6 5 6 6 6 6 7 5 5 6 6 5 5 4 3 5 5 4 5 5 4 4 4 2 4 6 3 3 5 4 4 5 7 8 8 9 8 6 5 3 2 1 1 2 1 1 1 2 4 6 7 7 7 8 9 9 10 9 9 9 9 10 10 11 11
12 11 11 10 10 9 9 9 8 7 6 7 6 4 5 8 7 6 6 5 6 7 5 4 6 6 5 6 8 7 6 5 4 5 5 4 5 7 6 5 7 9 9 8 8 7 5 4 4 2 0 1 2 2 2 2 2 3 4 5 6 6 7 8 9 9 10 10 10 10 10 10 11 12
11 11 10 11 11 11 11 11 10 8 7 9 8 7 8 9 8 7 7 6 7 8 7 6 6 7 7 6 7 7 7 6 5 6 5 3 4 6 7 7 8 10 10 8 7 6 5 4 4 3 1 2 2 3 3 3 3 3 4 5 5 6 6 7 8 9 10 10 11 11 11 11 11 12
13 13 12 12 12 13 12 12 11 9 9 11 11 9 9 8 8 8 7 8 9 9 8 7 6 7 8 8 8 8 8 8 6 6 6 5 4 5 9 10 9 10 9 8 7 5 4 4 4 3 1 0 1 2 3 4 4 5 5 6 6 7 8 8 9 10 11 11 12 13 13 13 13 12
15 14 13 13 14 14 12 12 12 11 10 11 11 10 9 8 9 9 9 9 10 10 10 8 7 8 9 9 9 10 10 10 9 8 7 6 7 8 9 11 12 10 8 7 7 6 5 6 6 4 1 1 1 1 2 3 4 5 6 7 7 8 9 10 11 11 12 13 14 14 15 15 14 14
15 14 13 14 15 14 12 11 11 11 11 12 11 11 11 10 9 10 10 9 8 9 10 9 9 9 9 9 9 9 10 11 11 10 9 7 8 9 9 11 12 11 9 7 7 6 6 7 7 5 2 0 3 3 1 1 3 4 5 6 7 8 10 11 12 12 13 14 15 15 15 16 15 15
15 14 13 13 15 15 14 12 11 11 13 13 12 11 12 12 11 11 11 9 8 9 10 10 10 10 10 10 9 9 10 10 10 11 10 9 9 11 13 11 8 10 12 11 9 8 7 6 5 5 4 2 3 4 4 2 3 3 4 5 6 8 9 10 11 12 13 14 14 14 15 15 15 15
14 15 14 13 14 15 15 14 12 12 13 13 12 11 12 12 11 11 10 10 10 11 12 12 12 11 11 11 11 10 10 11 11 10 9 10 11 12 13 12 9 10 12 12 12 11 9 6 4 5 6 4 1 3 5 4 3 4 4 5 6 7 8 9 10 11 12 13 13 13 13 13 13 13
15 17 17 15 14 15 16 15 14 13 12 12 12 13 13 13 12 11 10 10 11 12 13 13 13 12 12 11 11 11 11 11 11 9 10 12 13 11 11 12 10 9 8 9 12 12 11 8 4 4 8 8 4 5 7 5 3 4 5 5 6 7 7 8 8 9 10 11 11 12 12 11 11 11
17 18 19 17 16 16 16 15 13 12 12 12 12 13 13 13 13 12 11 11 12 12 13 13 14 14 14 12 10 10 10 10 10 11 13 14 14 14 13 13 12 11 10 10 10 10 12 10 6 7 11 12 10 11 10 7 5 5 5 6 6 6 7 7 7 7 8 9 9 9 9 9 9 9
19 18 17 16 15 15 15 14 12 11 11 11 11 11 12 13 12 12 13 13 13 13 14 14 14 15 15 14 12 11 10 10 13 15 17 16 16 17 16 13 13 13 12 11 12 12 13 12 10 13 16 16 15 14 10 8 8 8 7 7 7 7 7 8 8 7 7 7 7 6 6 6 6 7
20 18 14 13 13 13 14 13 12 12 12 11 10 10 11 12 12 12 12 12 13 14 15 16 16 16 16 16 15 13 12 13 16 19 19 18 17 17 16 14 14 14 13 13 13 12 13 14 12 14 19 20 16 12 9 9 10 9 9 8 8 7 6 7 8 8 7 7 6 5 4 4 4 5
19 16 12 11 11 13 15 16 15 15 15 14 13 12 12 12 12 13 13 12 13 14 15 17 18 17 17 17 16 14 15 16 18 19 20 19 17 16 16 16 16 16 15 14 14 13 14 14 12 13 18 20 16 12 10 10 10 10 10 10 9 7 6 6 7 8 7 7 6 5 4 4 4 4
17 16 14 12 13 15 17 18 18 18 18 18 17 17 15 14 14 14 14 14 14 15 15 16 18 18 19 20 18 16 17 19 20 20 20 19 18 18 18 19 18 17 16 16 16 16 16 16 14 15 18 20 17 14 12 11 10 10 10 9 11 11 7 5 5 7 7 7 6 5 4 4 5 5
17 16 15 14 15 16 17 19 19 19 20 20 19 18 17 16 16 17 17 17 16 17 17 16 17 18 19 19 19 18 18 19 20 21 21 20 19 19 19 20 19 17 17 18 18 18 17 15 14 15 17 20 18 16 14 13 11 10 10 10 14 15 10 6 5 6 7 6 6 5 5 4 4 5
17 17 16 16 16 17 19 20 18 18 19 19 18 18 19 20 21 20 19 19 18 18 19 19 18 18 18 18 19 19 19 19 21 22 21 21 20 20 20 20 18 18 19 18 18 19 18 15 13 13 15 17 17 14 13 12 11 10 11 12 14 14 10 6 5 5 6 6 6 6 5 4 4 4
15 14 14 15 16 18 20 19 17 17 18 19 20 21 22 23 23 22 21 21 20 20 21 22 22 21 21 20 20 21 20 21 23 22 22 23 23 23 22 21 20 20 20 18 18 20 19 15 13 13 14 15 15 13 12 13 12 11 11 11 11 12 10 8 7 6 6 6 6 6 6 5 4 4
14 12 11 12 14 17 19 20 19 19 20 21 22 22 23 24 24 23 23 23 22 21 20 22 23 24 23 22 22 23 22 23 24 24 24 25 25 24 22 20 19 19 19 18 18 20 20 17 15 14 15 16 15 13 12 14 13 11 11 11 11 11 11 10 9 7 7 6 7 7 6 6 5 5
15 15 15 15 16 18 20 21 21 21 21 22 21 21 23 25 26 26 26 25 24 22 21 22 24 24 24 23 22 23 23 24 26 26 26 26 26 25 22 18 17 19 20 19 19 20 21 19 18 16 14 14 15 13 14 15 13 12 12 12 12 12 11 11 11 11 9 8 7 7 7 7 7 7
13 14 15 16 16 17 19 20 21 21 22 21 21 22 25 26 27 28 28 27 26 25 24 25 26 25 25 25 24 24 24 24 25 27 26 26 26 25 23 21 20 21 22 21 19 20 21 21 22 18 12 11 13 13 12 13 11 11 12 12 11 13 14 14 13 11 10 9 7 8 8 8 8 7
14 14 14 15 17 18 18 19 21 23 24 24 23 24 25 26 27 27 28 27 26 25 25 25 27 27 26 25 25 25 24 24 24 25 23 22 23 22 22 22 22 23 24 22 21 21 19 18 20 18 12 11 12 10 7 8 9 11 12 12 12 13 15 15 13 9 7 8 8 7 7 7 8 9
15 14 13 13 14 15 15 15 16 18 20 20 21 22 23 24 24 25 25 25 22 21 21 23 25 26 23 23 25 25 24 23 22 21 19 18 18 18 18 19 20 21 22 21 21 21 18 14 16 18 15 13 12 10 7 4 6 10 11 12 13 14 13 13 12 9 7 9 9 9 10 12 13 13
11 9 6 6 7 8 9 9 11 12 14 16 17 18 18 19 20 21 21 19 16 14 15 18 20 20 18 19 21 22 21 21 21 20 19 17 15 13 14 16 15 14 14 14 16 17 15 13 15 16 15 14 13 12 11 8 3 3 6 9 11 12 10 11 12 10 9 11 12 13 16 17 17 16
4 2 1 2 3 5 7 7 8 9 11 12 13 13 12 12 14 15 15 14 12 11 12 14 14 14 13 14 15 15 16 16 16 17 17 15 14 13 13 13 12 11 12 13 15 15 15 14 13 11 11 12 11 11 13 12 8 5 5 7 9 11 12 14 14 13 13 14 15 17 18 18 18 18
4 7 8 8 8 9 9 8 8 10 10 10 10 10 9 9 10 9 8 8 9 10 11 11 10 9 9 9 9 10 11 10 10 11 11 11 11 11 12 14 14 15 15 16 17 16 15 14 11 9 8 8 7 7 8 10 10 10 10 11 13 13 14 16 16 16 17 18 19 20 20 19 17 16
8 11 12 11 12 13 12 12 14 15 12 10 10 11 11 11 10 10 9 7 6 6 7 7 6 5 5 5 6 6 7 7 7 8 8 8 8 8 10 13 14 13 12 12 13 13 12 11 10 9 8 7 6 6 6 7 8 9 11 15 16 15 15 16 17 17 18 19 20 20 20 18 16 16
10 10 9 9 10 13 14 15 15 14 12 11 11 11 12 12 10 9 9 10 9 7 6 5 5 5 5 5 6 6 6 6 6 5 5 5 7 9 11 11 12 11 10 10 12 12 12 11 9 8 8 7 7 7 7 8 10 11 12 13 14 15 16 17 16 17 19 20 20 20 19 17 16 15
9 8 8 7 8 12 14 13 12 11 11 12 11 9 10 11 10 8 10 12 12 11 8 7 6 5 5 5 6 6 6 6 4 2 1 4 6 8 9 10 9 9 8 8 9 9 10 9 7 7 7 8 8 9 10 10 11 11 11 10 10 12 14 13 12 14 17 19 19 20 19 19 18 16
7 8 8 9 9 11 11 10 10 10 10 10 9 8 8 9 10 10 11 12 13 12 11 9 8 6 5 6 7 7 7 6 4 2 1 3 4 5 5 6 6 6 5 4 5 7 8 9 9 10 10 10 10 9 9 10 9 8 8 9 10 13 15 13 12 13 17 19 20 20 21 20 18 13
8 9 10 11 11 9 7 7 8 10 8 7 8 9 8 9 10 10 11 12 12 12 12 11 10 9 7 6 7 8 7 5 3 3 2 1 1 2 1 2 3 4 3 5 7 9 10 10 11 13 14 14 12 9 7 7 8 7 8 10 13 15 16 16 16 16 18 20 20 20 20 18 13 8
10 9 10 10 9 7 5 6 7 9 9 8 9 9 9 9 9 10 11 12 12 12 12 12 12 11 10 8 7 8 7 6 5 3 2 2 2 1 1 0 0 2 5 7 8 9 10 11 13 14 14 12 10 9 9 7 7 7 9 11 13 13 13 14 16 17 17 18 18 18 18 16 12 9
8 7 7 7 6 5 4 3 4 6 7 7 9 10 10 10 10 10 10 10 11 12 12 12 11 11 10 9 8 7 6 6 5 5 4 3 3 3 2 1 0 2 4 6 8 9 10 11 14 15 13 8 5 6 6 6 6 7 9 11 13 14 14 14 16 17 18 19 18 17 16 14 13 14
6 6 6 6 7 7 6 4 3 2 3 3 4 5 6 7 8 9 8 9 11 13 13 13 11 11 11 10 9 9 10 9 8 8 7 5 5 5 4 3 3 3 2 2 3 4 6 8 9 10 9 8 6 6 8 9 8 8 10 11 13 15 16 17 17 18 18 19 17 15 13 12 12 15
9 9 8 8 8 7 6 6 7 8 8 8 7 4 3 5 6 7 8 8 10 11 10 11 10 11 10 9 8 9 11 12 11 10 8 8 9 9 8 7 7 7 8 8 8 8 10 13 13 13 13 12 11 12 15 16 16 14 14 14 15 16 17 17 17 17 17 17 16 16 16 16 15 15
8 8 7 6 6 5 4 5 7 9 9 10 10 7 7 9 11 9 9 9 6 6 5 6 4 3 4 5 4 4 4 6 8 7 6 6 8 8 9 10 10 9 8 8 7 6 9 11 12 13 14 14 14 16 18 18 15 11 10 10 11 12 13 13 13 13 14 15 17 18 18 16 16 17
7 6 5 4 5 4 4 4 4 4 5 7 10 9 9 11 12 8 7 7 4 2 3 6 5 4 6 8 8 6 3 2 3 4 4 3 2 3 6 8 8 6 5 5 5 6 8 9 10 12 13 15 16 16 14 11 9 9 10 9 8 8 10 11 11 11 12 14 17 17 16 14 13 13
5 4 4 3 3 3 2 0 0 1 2 4 6 6 4 5 7 6 6 8 6 3 2 4 5 5 6 8 8 6 4 3 5 7 8 7 7 6 6 5 6 6 5 4 5 7 8 9 11 12 12 14 14 12 8 7 8 9 10 10 9 8 8 9 10 11 13 16 17 16 15 14 13 11
3 2 1 2 2 2 3 2 3 6 6 3 3 5 6 7 7 8 9 11 11 8 6 7 8 9 10 11 10 9 7 8 9 9 8 7 8 8 7 6 7 7 6 7 9 9 8 9 11 11 10 10 10 9 8 9 10 11 11 12 12 12 11 12 13 14 16 17 17 15 14 14 15 14
2 1 3 4 5 4 4 3 5 7 6 4 3 6 7 7 7 7 6 6 7 6 5 5 6 8 11 12 10 9 9 9 8 7 6 6 6 6 6 6 7 7 8 9 10 10 9 9 9 10 10 11 10 9 10 12 13 14 15 15 15 14 13 14 15 16 16 15 15 14 14 16 17 16
1 2 4 5 6 6 7 6 5 3 1 2 1 1 1 1 3 4 4 5 5 6 5 5 5 5 7 8 8 8 8 7 5 6 7 8 8 7 7 8 8 7 6 7 9 9 8 6 6 6 8 9 10 10 12 14 14 14 15 15 13 11 11 12 13 15 16 16 15 16 17 18 18 17
Wind_Direction
251 260 267 266 268 275 273 271 263 253 276 279 252 254 265 261 189 180 170 193 216 265 315 341 352 177 169 223 213 177 172 184 203 211 169 111 275 291 330 357 14 11 3 5 9 13 17 12 164 194 198 191 202 219 231 244 247 252 259 258 254 233 217 215 212 219 223 227 236 239 245 250 250 252
254 260 264 268 280 286 281 281 277 273 279 280 281 278 273 285 262 197 169 183 189 209 229 293 327 198 140 1 218 175 166 186 198 186 155 354 299 283 297 9 13 359 355 359 356 354 355 346 313 232 221 216 221 228 231 239 243 245 247 250 257 257 255 250 242 240 235 234 237 237 242 246 248 252
274 280 273 269 271 273 273 280 293 297 300 297 297 296 300 307 290 278 304 242 177 185 239 263 322 171 149 274 242 171 153 193 207 181 177 327 336 323 3 15 12 1 355 355 352 350 349 346 336 279 241 230 232 237 241 246 247 246 246 244 246 249 254 261 261 262 262 258 253 249 246 244 244 244
256 259 261 262 264 269 272 273 278 289 295 299 301 297 300 302 286 253 285 286 263 258 258 257 99 167 226 264 254 181 163 187 212 196 190 152 5 297 249 14 8 3 354 350 350 350 349 349 347 334 255 222 223 229 235 242 244 243 242 239 238 238 241 248 256 262 268 270 271 270 266 262 257 251
256 252 254 262 270 276 286 293 295 294 292 296 304 312 305 295 302 314 290 280 280 280 283 257 198 196 216 233 235 213 195 196 206 221 232 244 346 322 333 5 354 353 350 348 351 349 350 0 359 5 55 135 174 198 218 233 236 234 232 230 232 233 233 235 242 250 258 265 270 272 272 272 270 266
271 267 261 265 278 289 301 307 300 294 295 292 300 321 316 294 303 323 302 288 288 287 302 293 237 218 212 208 207 223 237 230 211 243 265 295 327 303 308 325 326 330 332 338 349 348 348 0 5 5 56 120 139 151 170 188 207 213 217 223 228 231 232 233 234 240 246 252 260 265 268 268 267 268
278 280 275 274 279 278 278 277 276 283 290 285 285 298 292 283 284 287 280 281 283 275 271 271 261 258 250 224 209 202 211 227 230 235 261 308 302 274 280 307 314 314 314 322 336 342 348 358 5 3 238 187 178 183 181 183 196 204 209 214 221 225 229 231 233 237 241 245 253 259 264 265 264 262
276 276 273 272 270 264 259 258 262 266 267 270 270 263 262 271 279 277 273 284 287 272 261 264 272 275 267 243 229 218 211 220 234 237 247 277 280 272 281 293 304 308 305 310 321 328 342 357 5 5 288 221 218 214 212 216 213 217 221 221 225 229 232 235 237 239 242 246 252 256 260 263 264 261
260 262 263 266 268 269 267 265 264 262 261 266 269 267 268 274 276 268 268 285 288 277 270 274 282 280 270 259 256 251 237 226 226 245 265 272 252 258 275 281 292 299 297 304 310 315 342 357 3 9 358 260 260 238 234 241 239 237 236 233 235 238 240 245 247 248 251 252 254 256 259 261 262 262
262 266 268 267 266 266 267 267 267 265 265 267 269 273 280 285 282 275 275 283 286 283 283 287 292 287 278 272 268 264 254 242 231 228 241 261 254 242 246 263 279 285 285 297 302 308 340 350 353 358 351 76 27 285 239 247 254 254 253 249 248 248 249 250 251 253 255 257 257 257 257 258 259 261
261 262 264 266 269 269 266 266 266 265 266 269 270 273 277 278 279 281 283 287 289 290 290 294 299 295 288 282 275 270 260 250 243 233 221 233 258 255 248 257 276 286 290 304 309 309 332 345 345 340 301 346 17 351 307 266 262 257 257 259 258 259 259 258 257 257 256 257 259 258 258 257 256 257
260 259 257 261 269 270 268 266 265 263 264 268 270 270 269 271 273 275 277 279 286 292 292 293 296 293 292 289 283 282 273 261 259 253 237 237 259 267 265 263 257 260 277 300 308 303 323 339 329 321 303 294 349 352 352 346 303 278 268 267 267 268 268 267 266 264 261 259 258 258 259 258 256 254
262 263 260 258 263 269 269 267 265 263 262 266 269 268 268 272 275 275 274 275 281 286 287 289 291 288 287 288 285 285 283 276 272 265 253 252 259 262 265 265 250 242 262 289 297 295 310 322 311 311 306 287 288 338 341 346 330 307 296 289 282 274 270 268 267 266 266 265 264 263 262 260 259 252
268 268 269 268 267 269 270 270 268 264 263 265 267 267 269 273 277 279 279 280 282 286 288 290 293 290 284 284 286 284 285 286 281 271 266 262 259 256 256 257 256 245 244 267 285 289 289 291 291 275 273 271 271 303 319 330 330 311 299 294 290 279 272 267 265 264 265 267 269 270 268 266 261 249
276 274 270 268 265 262 265 271 273 270 268 271 271 269 271 273 277 280 281 279 279 282 287 290 293 291 287 284 280 272 276 286 278 264 264 263 257 254 252 251 255 251 238 242 257 263 264 271 272 245 251 262 272 285 297 303 307 310 302 294 292 285 278 271 267 268 267 267 270 271 270 267 257 239
274 271 266 266 266 263 266 276 284 282 276 275 274 272 272 274 277 280 279 278 276 275 279 284 287 287 286 284 278 267 260 264 261 256 259 264 261 256 250 246 254 261 258 250 249 249 251 252 244 236 240 249 260 272 283 292 297 301 301 299 295 287 279 271 266 267 268 268 270 269 265 257 240 219
273 272 268 268 273 276 282 292 300 297 289 285 279 272 273 275 276 276 274 274 275 275 277 279 280 282 285 285 282 274 260 249 251 254 257 263 267 262 251 245 252 262 265 264 265 262 251 242 236 236 241 246 253 264 279 295 297 293 293 299 297 288 279 269 261 261 264 266 266 266 259 240 216 202
277 278 269 264 274 285 293 300 303 298 292 289 285 279 278 279 275 271 270 269 270 273 275 278 279 280 282 282 279 274 263 252 251 254 256 258 264 265 259 254 257 261 263 268 273 268 256 251 247 245 249 254 258 265 280 298 300 294 296 301 303 299 283 266 260 256 255 257 256 253 247 229 211 202
278 275 267 266 274 282 288 293 295 293 291 289 286 283 281 280 278 276 276 276 274 271 269 272 276 277 276 276 275 271 264 257 254 254 255 255 257 259 259 258 260 261 259 261 265 264 262 263 258 251 253 259 264 270 281 292 296 298 303 310 318 318 300 268 261 255 248 247 244 238 230 219 211 203
278 274 272 271 272 275 279 281 283 285 287 286 283 282 283 283 282 280 279 280 279 277 274 270 272 274 274 274 275 272 267 264 259 254 252 255 256 255 255 256 258 258 257 260 263 263 264 264 257 249 250 256 264 273 280 284 290 298 306 317 325 321 302 270 256 252 244 237 233 232 230 224 216 208
281 281 278 271 268 271 276 278 279 279 279 279 279 281 283 283 284 284 282 278 276 276 278 275 272 272 272 272 272 270 267 265 261 253 248 252 255 253 250 249 251 252 254 258 262 262 261 256 245 241 245 250 258 269 278 285 292 297 305 320 328 322 302 274 258 251 242 232 228 235 238 236 229 220
279 282 279 271 268 269 272 275 275 271 270 272 276 280 281 282 285 287 285 280 276 275 276 275 272 271 271 271 271 270 268 265 263 259 253 253 255 255 254 253 251 249 249 254 260 261 257 247 234 226 227 238 252 266 279 287 291 295 304 316 325 323 313 298 279 260 247 235 229 234 244 253 255 253
266 269 272 272 270 268 269 271 270 266 265 269 274 278 281 283 284 284 281 280 280 280 277 274 274 274 273 271 271 271 270 267 263 260 255 253 254 256 259 259 256 251 247 251 257 257 251 243 236 227 221 226 240 255 270 277 279 286 298 309 314 318 321 317 301 283 268 252 240 238 245 257 266 275
261 263 269 275 273 270 269 271 270 267 265 267 272 276 278 279 280 280 279 280 282 282 278 275 276 276 273 271 271 272 268 263 260 258 255 253 254 256 256 254 254 254 251 251 254 254 250 243 236 232 229 229 237 250 261 264 270 283 297 309 316 318 320 322 316 304 288 266 250 247 249 252 264 279
264 264 268 274 275 275 276 276 277 275 271 269 271 275 276 278 280 282 283 283 282 280 277 275 275 275 275 274 273 269 263 259 259 258 255 254 255 256 255 248 246 250 251 249 249 251 252 247 238 235 230 225 234 249 256 255 268 292 300 302 311 316 317 316 312 304 291 276 267 262 254 248 252 260
265 262 264 269 274 280 283 282 282 283 278 273 272 274 278 280 282 283 284 283 281 278 275 275 274 275 275 273 268 264 263 263 259 253 250 252 252 252 253 249 247 251 255 255 248 243 245 247 243 237 223 209 214 223 232 249 270 286 291 295 304 312 315 313 309 306 297 289 285 278 263 255 262 267
265 267 273 274 275 282 289 289 290 291 288 282 278 279 281 282 283 283 282 282 282 279 275 274 273 272 271 270 270 272 274 272 264 253 248 248 245 244 249 253 255 258 262 265 255 238 227 224 229 227 220 220 222 213 202 226 265 269 272 287 304 312 312 308 304 301 294 290 290 290 289 287 286 285
261 266 281 291 289 293 301 303 303 301 297 293 291 288 287 285 283 281 280 281 283 279 272 272 275 275 273 275 278 279 279 277 274 271 266 259 254 254 256 258 259 255 253 256 249 231 213 211 225 231 233 240 242 230 216 209 214 261 271 286 301 304 292 285 288 285 276 278 284 290 294 295 293 289
232 208 80 34 3 350 341 329 320 313 306 304 303 303 304 301 293 289 287 284 280 272 264 267 274 279 281 284 283 279 278 281 282 280 274 264 259 260 254 243 236 228 223 223 220 213 210 218 228 231 233 238 241 239 236 231 224 223 242 264 276 268 248 248 259 259 254 263 273 279 287 291 290 288
130 99 84 69 51 35 21 11 7 356 343 334 331 335 345 345 336 331 323 302 281 271 268 271 279 284 289 296 298 289 284 285 282 278 273 264 257 252 239 227 220 219 219 211 201 200 208 218 222 217 218 225 231 238 246 247 241 235 236 244 253 254 243 242 250 253 252 257 263 270 279 282 277 275
112 101 93 76 52 40 35 30 23 14 10 13 12 11 13 10 8 13 14 1 332 306 295 291 293 301 303 302 305 304 298 293 284 273 263 257 245 222 211 211 212 215 219 213 204 200 199 202 209 212 212 218 232 246 263 277 274 267 256 247 247 253 256 254 257 263 264 264 266 272 279 281 274 267
88 87 91 82 58 46 40 34 26 19 20 22 19 16 12 6 6 21 28 22 16 8 351 327 312 317 324 321 320 321 315 306 298 281 250 230 215 200 197 203 205 205 209 211 210 209 205 205 212 218 217 223 240 259 276 290 293 290 280 262 249 249 256 259 262 268 271 272 275 280 282 284 283 276
89 86 84 80 66 52 44 35 25 20 20 19 16 17 13 7 8 20 26 23 19 16 9 356 346 345 351 1 8 2 351 346 344 334 218 196 198 198 201 203 201 198 201 206 212 216 218 223 235 245 245 247 258 274 286 297 301 293 282 268 250 246 251 255 258 265 269 268 271 276 281 286 291 287
107 101 87 77 72 62 55 46 29 23 29 32 26 17 13 17 20 19 17 17 15 13 12 10 8 5 1 4 8 3 359 6 19 35 113 178 191 190 193 195 187 180 191 232 269 277 272 269 271 274 274 273 274 285 299 306 303 285 260 246 243 244 246 246 246 255 265 268 272 278 285 291 294 291
105 114 113 105 100 93 88 78 52 35 34 35 25 16 19 35 43 35 28 29 28 25 27 29 26 24 17 10 7 5 4 11 21 28 29 11 193 178 184 203 193 200 236 274 287 296 302 299 291 288 288 286 286 304 326 318 301 284 255 241 245 250 252 255 256 258 265 272 280 288 296 301 304 295
104 116 122 119 120 123 123 114 92 68 52 40 35 30 24 28 41 45 42 41 39 37 37 37 32 28 25 25 25 23 21 23 25 25 12 345 325 298 297 332 277 298 316 320 319 324 331 330 324 318 312 304 311 334 339 317 292 278 257 245 250 257 261 266 272 275 276 280 289 297 303 305 299 278
117 117 119 119 114 102 97 121 124 93 67 52 52 48 30 16 21 33 38 40 39 34 31 30 31 26 19 16 17 16 14 12 4 353 339 328 314 286 261 247 292 355 2 358 349 345 341 333 329 326 318 313 332 339 315 291 276 267 258 251 251 256 260 267 277 284 288 292 297 303 307 304 291 278
83 71 85 91 72 58 56 52 41 41 43 37 43 51 44 29 24 24 23 32 40 31 12 6 17 18 7 4 8 5 0 359 355 349 343 332 316 301 288 278 269 270 283 289 301 313 305 297 301 304 297 291 294 284 275 278 278 266 257 254 254 259 268 276 280 283 286 288 287 284 283 284 284 284
79 66 70 79 69 57 59 55 28 5 8 14 3 350 2 6 2 2 359 12 44 44 11 356 16 23 7 6 19 15 4 2 4 1 351 340 337 333 317 299 287 279 274 272 269 269 275 280 282 284 284 283 278 273 276 283 285 279 274 273 274 276 278 280 282 285 288 289 285 278 271 265 263 268
93 87 83 90 83 61 54 60 37 15 17 20 7 360 5 356 346 348 348 349 23 55 15 341 3 21 342 334 350 358 1 11 13 6 349 346 356 352 336 330 337 338 333 334 328 296 277 277 278 281 283 282 279 279 284 289 294 301 304 297 291 290 289 286 286 291 296 299 301 300 295 285 270 262
67 69 63 73 80 59 52 78 68 34 26 14 358 360 15 8 357 358 359 348 352 50 13 341 328 313 304 304 305 306 311 337 332 303 278 279 314 335 338 348 355 351 346 356 352 326 308 300 293 292 294 295 295 297 299 302 313 329 329 321 313 307 302 295 292 295 303 311 315 316 316 311 300 283
72 91 101 101 98 69 40 22 254 12 51 40 9 357 1 358 344 328 323 324 313 282 301 329 321 307 298 297 303 314 317 289 275 272 274 283 291 295 304 313 306 292 277 266 280 303 322 324 315 309 308 309 312 319 322 317 312 309 309 311 311 306 297 291 292 304 316 320 320 321 322 319 315 308
89 121 219 284 297 325 339 344 14 19 15 6 353 350 347 345 340 334 335 337 331 315 306 314 320 317 308 302 306 311 299 285 284 290 302 321 326 322 322 319 309 304 299 289 284 287 292 296 300 306 312 317 320 319 313 308 305 300 298 301 299 294 291 292 297 307 315 313 307 307 314 316 311 305
82 27 356 351 352 354 0 30 63 49 29 18 19 10 1 350 340 337 345 353 349 342 337 335 337 334 330 332 337 333 320 314 317 325 336 343 336 329 332 337 333 327 322 321 319 311 300 297 304 311 319 324 322 311 307 314 317 316 316 314 305 296 300 306 308 310 315 312 305 303 309 311 306 303
105 32 23 15 15 21 23 26 36 36 333 239 226 269 305 14 344 312 286 275 283 291 292 287 284 300 325 345 355 348 339 342 357 5 357 346 337 338 338 330 324 320 318 328 334 325 307 298 295 294 306 322 325 314 307 308 307 310 319 323 316 308 307 306 301 301 306 309 309 306 305 301 295 294
Height
1579 1580 1580 1580 1580 1581 1580 1580 1580 1579 1580 1580 1580 1580 1579 1579 1579 1579 1580 1580 1577 1576 1576 1576 1575 1576 1576 1574 1574 1575 1575 1576 1576 1576 1575 1575 1575 1575 1574 1574 1573 1573 1572 1571 1571 1570 1569 1569 1569 1568 1568 1568 1568 1568 1568 1569 1569 1569 1569 1569 1569 1569 1570 1570 1570 1570 1571 1571 1571 1572 1572 1572 1573 1573
1578 1578 1579 1579 1579 1579 1579 1578 1579 1578 1578 1578 1578 1578 1578 1578 1577 1577 1579 1579 1577 1576 1576 1575 1575 1575 1574 1574 1574 1575 1575 1575 1576 1575 1575 1575 1575 1574 1574 1573 1573 1572 1572 1571 1570 1570 1569 1568 1568 1568 1568 1568 1567 1568 1568 1568 1568 1568 1568 1569 1569 1569 1569 1570 1570 1570 1570 1571 1571 1571 1572 1572 1572 1572
1577 1577 1578 1578 1578 1578 1578 1578 1578 1577 1577 1577 1577 1576 1576 1576 1576 1576 1577 1577 1577 1577 1576 1576 1575 1574 1573 1575 1575 1574 1574 1574 1575 1574 1574 1574 1574 1574 1574 1573 1572 1572 1572 1571 1570 1569 1568 1568 1567 1567 1567 1567 1567 1567 1567 1567 1567 1567 1567 1568 1568 1569 1569 1569 1570 1570 1570 1570 1570 1571 1571 1571 1571 1571
1576 1576 1576 1576 1576 1576 1576 1577 1577 1577 1577 1576 1576 1576 1575 1575 1575 1575 1575 1576 1576 1576 1576 1576 1576 1575 1574 1574 1574 1574 1573 1573 1574 1573 1573 1573 1573 1573 1573 1572 1572 1572 1571 1570 1569 1569 1568 1567 1567 1566 1566 1566 1566 1566 1566 1566 1566 1566 1566 1567 1567 1567 1568 1568 1569 1569 1569 1570 1570 1570 1570 1570 1570 1570
1574 1574 1574 1575 1574 1574 1574 1575 1575 1575 1576 1575 1575 1575 1574 1574 1574 1574 1575 1575 1575 1575 1575 1575 1575 1575 1574 1574 1574 1574 1574 1573 1573 1573 1573 1572 1572 1572 1571 1571 1571 1571 1570 1570 1569 1568 1567 1567 1566 1566 1565 1565 1565 1565 1565 1564 1564 1564 1565 1565 1566 1566 1567 1567 1568 1568 1568 1569 1569 1569 1569 1569 1569 1569
1572 1572 1573 1573 1573 1573 1573 1574 1574 1574 1575 1574 1574 1574 1574 1573 1574 1574 1574 1574 1574 1574 1574 1574 1574 1574 1574 1573 1574 1573 1573 1574 1573 1572 1572 1572 1571 1570 1570 1570 1570 1570 1570 1569 1568 1568 1567 1566 1566 1565 1565 1565 1564 1564 1564 1564 1564 1564 1564 1564 1564 1565 1565 1566 1566 1567 1567 1567 1567 1567 1567 1567 1568 1568
1571 1571 1571 1571 1572 1572 1572 1572 1573 1573 1573 1573 1572 1572 1572 1571 1572 1572 1573 1573 1573 1573 1573 1573 1573 1573 1573 1573 1573 1572 1573 1573 1573 1573 1572 1572 1571 1570 1569 1569 1569 1569 1569 1568 1568 1567 1566 1566 1565 1565 1564 1564 1564 1564 1564 1563 1563 1563 1563 1563 1564 1564 1564 1564 1565 1565 1565 1566 1566 1566 1566 1566 1566 1566
1570 1570 1570 1570 1570 1570 1570 1570 1571 1571 1571 1571 1571 1571 1570 1570 1570 1570 1571 1571 1571 1571 1571 1571 1572 1572 1572 1572 1572 1572 1572 1572 1572 1572 1572 1572 1571 1570 1569 1569 1569 1569 1568 1568 1567 1567 1566 1565 1565 1564 1564 1563 1563 1563 1563 1563 1563 1563 1563 1563 1563 1563 1563 1563 1563 1564 1564 1564 1564 1564 1564 1564 1564 1565
1569 1569 1569 1569 1569 1569 1569 1569 1569 1569 1569 1569 1569 1569 1569 1569 1569 1569 1569 1569 1570 1570 1570 1570 1570 1571 1571 1571 1571 1571 1571 1571 1571 1571 1571 1572 1572 1570 1569 1568 1568 1568 1567 1567 1567 1566 1565 1564 1564 1563 1563 1562 1562 1562 1562 1562 1562 1562 1562 1562 1562 1562 1562 1562 1562 1562 1562 1562 1563 1563 1563 1563 1563 1563
1567 1567 1568 1568 1567 1567 1567 1567 1568 1568 1568 1567 1567 1567 1567 1567 1567 1567 1568 1568 1568 1568 1568 1568 1568 1569 1569 1569 1570 1570 1570 1570 1570 1570 1570 1570 1571 1570 1569 1568 1567 1567 1566 1566 1566 1565 1564 1564 1563 1563 1562 1562 1561 1561 1560 1560 1560 1560 1561 1561 1561 1561 1560 1560 1560 1560 1560 1560 1560 1560 1560 1561 1561 1561
1565 1565 1565 1565 1565 1565 1565 1565 1566 1566 1566 1565 1565 1565 1565 1565 1565 1565 1565 1565 1565 1566 1566 1566 1567 1567 1567 1568 1568 1568 1569 1569 1569 1569 1569 1569 1569 1569 1568 1567 1566 1566 1565 1565 1565 1564 1564 1563 1562 1562 1562 1561 1561 1560 1560 1559 1559 1559 1559 1559 1559 1559 1559 1559 1559 1559 1558 1558 1558 1558 1558 1558 1559 1559
1562 1563 1563 1563 1563 1563 1563 1563 1563 1563 1563 1563 1563 1563 1562 1563 1563 1563 1563 1564 1564 1564 1564 1564 1564 1565 1565 1566 1566 1567 1567 1567 1568 1568 1568 1568 1568 1568 1567 1567 1567 1565 1564 1564 1563 1563 1563 1562 1561 1561 1561 1560 1560 1560 1559 1559 1558 1558 1558 1558 1558 1558 1557 1557 1557 1557 1557 1556 1556 1556 1556 1556 1556 1557
1561 1562 1562 1562 1562 1562 1562 1561 1561 1561 1561 1561 1561 1560 1560 1561 1561 1561 1561 1562 1562 1562 1562 1562 1563 1563 1563 1564 1564 1565 1565 1566 1566 1566 1567 1566 1566 1566 1565 1566 1566 1565 1564 1563 1562 1562 1562 1561 1561 1560 1559 1559 1559 1559 1558 1558 1558 1557 1557 1557 1557 1556 1556 1556 1556 1555 1555 1555 1554 1554 1554 1554 1554 1554
1561 1561 1562 1562 1561 1561 1560 1560 1560 1560 1560 1559 1559 1559 1558 1559 1559 1560 1560 1560 1560 1561 1561 1561 1561 1561 1561 1562 1563 1563 1563 1564 1564 1564 1564 1564 1564 1564 1564 1564 1564 1564 1563 1563 1562 1561 1560 1560 1560 1559 1557 1557 1557 1558 1558 1557 1557 1557 1556 1556 1556 1555 1555 1555 1554 1554 1554 1553 1553 1553 1552 1552 1552 1552
1559 1560 1560 1561 1560 1559 1559 1559 1559 1559 1558 1558 1558 1557 1557 1557 1557 1558 1558 1558 1558 1559 1559 1559 1559 1559 1559 1560 1561 1561 1562 1562 1563 1562 1562 1562 1563 1563 1562 1562 1562 1562 1562 1562 1562 1561 1560 1560 1560 1558 1555 1555 1556 1557 1557 1557 1556 1556 1556 1555 1555 1554 1554 1554 1553 1553 1552 1552 1552 1551 1551 1551 1551 1551
1556 1557 1558 1559 1559 1559 1558 1558 1558 1557 1557 1556 1556 1556 1555 1555 1556 1556 1556 1556 1556 1557 1557 1557 1557 1557 1557 1558 1558 1559 1560 1560 1560 1560 1560 1560 1561 1561 1561 1560 1560 1560 1561 1561 1561 1561 1560 1560 1559 1557 1555 1556 1556 1556 1556 1556 1555 1555 1554 1554 1553 1553 1553 1552 1552 1552 1551 1551 1550 1550 1550 1550 1550 1550
1554 1555 1557 1558 1559 1559 1559 1559 1558 1557 1556 1555 1554 1554 1554 1554 1554 1553 1554 1554 1554 1554 1554 1554 1554 1555 1555 1555 1556 1557 1558 1558 1558 1557 1557 1558 1558 1558 1558 1558 1558 1558 1559 1559 1559 1559 1559 1558 1559 1558 1557 1557 1557 1556 1555 1554 1554 1553 1553 1552 1552 1551 1551 1551 1550 1550 1550 1550 1550 1549 1549 1549 1549 1549
1552 1554 1556 1556 1557 1558 1559 1559 1558 1557 1555 1554 1553 1552 1552 1552 1551 1551 1551 1551 1552 1551 1551 1552 1552 1553 1554 1553 1553 1554 1555 1555 1555 1555 1555 1555 1555 1556 1556 1555 1556 1556 1557 1557 1557 1557 1557 1557 1559 1559 1559 1558 1557 1556 1555 1554 1553 1552 1552 1551 1550 1550 1549 1549 1549 1549 1549 1549 1548 1548 1548 1548 1548 1549
1551 1552 1553 1554 1554 1557 1558 1557 1557 1555 1553 1552 1551 1550 1550 1550 1549 1549 1549 1549 1549 1549 1549 1549 1550 1551 1551 1551 1551 1552 1552 1553 1553 1553 1553 1553 1553 1553 1553 1553 1553 1554 1554 1554 1554 1554 1554 1555 1556 1556 1557 1557 1557 1556 1554 1553 1552 1551 1551 1550 1550 1549 1548 1547 1547 1547 1547 1547 1547 1547 1547 1548 1548 1548
1549 1550 1551 1552 1552 1554 1555 1555 1554 1553 1551 1550 1549 1548 1547 1547 1547 1547 1547 1547 1547 1546 1546 1546 1547 1548 1549 1549 1549 1549 1549 1550 1551 1551 1551 1552 1552 1551 1550 1550 1551 1552 1552 1552 1552 1551 1551 1552 1552 1552 1553 1554 1555 1555 1553 1552 1551 1550 1550 1549 1549 1548 1547 1546 1545 1545 1545 1545 1545 1546 1546 1546 1547 1547
1546 1548 1549 1549 1550 1551 1551 1551 1551 1550 1548 1548 1547 1546 1545 1545 1545 1545 1545 1545 1544 1544 1544 1544 1544 1545 1545 1546 1547 1547 1547 1547 1547 1548 1550 1551 1550 1548 1547 1547 1548 1549 1549 1550 1551 1550 1550 1550 1551 1550 1550 1550 1552 1553 1552 1551 1550 1549 1549 1548 1548 1547 1546 1545 1545 1544 1544 1544 1544 1544 1544 1545 1545 1546
1544 1545 1545 1546 1547 1547 1547 1547 1547 1546 1546 1545 1545 1544 1543 1542 1542 1542 1542 1542 1542 1542 1541 1541 1541 1541 1542 1543 1543 1544 1544 1544 1544 1545 1548 1548 1547 1546 1546 1545 1546 1546 1546 1547 1548 1548 1548 1548 1548 1549 1548 1548 1548 1550 1550 1549 1548 1548 1547 1547 1547 1546 1545 1545 1544 1544 1544 1543 1543 1543 1543 1543 1543 1544
1543 1543 1543 1543 1544 1544 1544 1544 1543 1543 1543 1543 1542 1541 1540 1539 1539 1539 1539 1539 1538 1539 1538 1538 1538 1539 1539 1539 1540 1540 1541 1541 1540 1541 1543 1544 1544 1544 1545 1545 1544 1544 1544 1544 1545 1545 1545 1546 1546 1546 1546 1545 1544 1546 1547 1547 1546 1546 1545 1545 1545 1545 1544 1544 1544 1543 1543 1542 1542 1542 1542 1542 1542 1542
1541 1541 1541 1542 1542 1541 1541 1541 1540 1540 1540 1540 1539 1539 1538 1537 1536 1536 1536 1536 1536 1536 1535 1535 1536 1536 1537 1537 1537 1538 1539 1538 1537 1537 1538 1539 1540 1541 1542 1543 1543 1543 1543 1543 1543 1542 1542 1543 1543 1543 1543 1543 1542 1543 1544 1545 1544 1544 1543 1543 1543 1543 1543 1543 1542 1542 1542 1541 1541 1541 1541 1541 1541 1541
1539 1539 1539 1540 1540 1539 1539 1538 1538 1537 1537 1537 1536 1536 1535 1534 1534 1533 1533 1533 1533 1533 1533 1533 1533 1534 1534 1535 1535 1536 1536 1536 1535 1534 1534 1535 1535 1536 1537 1538 1539 1539 1540 1540 1540 1539 1540 1540 1540 1540 1541 1541 1541 1541 1542 1543 1543 1542 1541 1541 1541 1541 1540 1540 1540 1540 1540 1540 1540 1539 1539 1539 1540 1540
1536 1537 1537 1538 1538 1537 1537 1537 1536 1535 1534 1534 1533 1533 1532 1532 1531 1531 1530 1529 1530 1530 1530 1530 1531 1531 1532 1532 1532 1533 1534 1533 1532 1530 1530 1530 1531 1531 1532 1533 1534 1535 1535 1536 1536 1536 1536 1537 1537 1538 1539 1540 1539 1539 1540 1540 1540 1540 1539 1539 1539 1539 1538 1538 1538 1539 1539 1539 1539 1538 1538 1538 1538 1539
1534 1535 1536 1536 1536 1536 1535 1535 1534 1533 1532 1531 1531 1530 1530 1530 1529 1528 1527 1526 1527 1528 1528 1528 1528 1530 1530 1529 1529 1529 1530 1530 1528 1526 1526 1527 1527 1527 1528 1530 1531 1532 1532 1532 1533 1533 1533 1534 1535 1535 1537 1538 1538 1538 1539 1540 1539 1538 1538 1538 1538 1538 1537 1536 1536 1536 1537 1537 1537 1538 1538 1537 1537 1537
1531 1533 1534 1535 1534 1534 1533 1532 1531 1531 1530 1530 1529 1529 1528 1528 1527 1526 1525 1524 1525 1525 1525 1526 1526 1527 1528 1527 1526 1526 1526 1526 1525 1524 1525 1526 1526 1526 1527 1528 1529 1529 1530 1531 1532 1532 1531 1532 1533 1534 1535 1536 1536 1537 1538 1539 1539 1539 1539 1538 1538 1538 1536 1534 1534 1534 1534 1534 1535 1536 1536 1536 1536 1535
1530 1531 1533 1533 1533 1532 1531 1530 1530 1530 1529 1529 1528 1527 1526 1526 1525 1524 1524 1523 1524 1524 1524 1524 1524 1524 1524 1524 1524 1523 1523 1523 1523 1523 1524 1525 1525 1525 1526 1526 1526 1527 1527 1528 1529 1530 1530 1531 1532 1532 1533 1534 1535 1536 1536 1537 1538 1538 1539 1539 1538 1538 1537 1535 1534 1534 1533 1533 1533 1534 1534 1534 1534 1533
1530 1531 1532 1533 1533 1532 1531 1530 1530 1529 1529 1528 1527 1526 1525 1525 1525 1524 1523 1523 1523 1523 1523 1523 1523 1523 1523 1523 1522 1522 1522 1522 1522 1522 1522 1523 1523 1524 1524 1524 1524 1524 1524 1525 1526 1528 1529 1530 1530 1531 1531 1532 1533 1534 1535 1535 1536 1536 1537 1537 1537 1537 1536 1535 1534 1533 1533 1533 1532 1532 1533 1533 1532 1531
1530 1530 1531 1532 1533 1532 1531 1530 1530 1530 1530 1529 1528 1527 1526 1526 1526 1525 1524 1523 1522 1522 1522 1522 1522 1522 1522 1521 1521 1521 1521 1521 1521 1522 1522 1522 1522 1523 1523 1523 1523 1523 1524 1525 1526 1527 1528 1528 1529 1529 1529 1530 1532 1532 1533 1533 1534 1535 1535 1535 1535 1535 1534 1533 1532 1532 1531 1531 1530 1530 1531 1531 1531 1530
1531 1531 1532 1532 1533 1532 1531 1531 1531 1531 1531 1530 1529 1529 1528 1528 1527 1526 1525 1523 1523 1522 1522 1522 1522 1521 1521 1521 1521 1521 1521 1521 1521 1521 1521 1522 1522 1523 1523 1523 1523 1523 1524 1525 1526 1526 1527 1527 1528 1528 1528 1529 1530 1531 1531 1531 1532 1532 1532 1533 1533 1533 1532 1531 1530 1529 1528 1528 1528 1528 1528 1528 1528 1528
1532 1533 1533 1533 1533 1532 1532 1532 1532 1532 1532 1531 1531 1531 1530 1529 1528 1527 1526 1524 1524 1523 1523 1522 1522 1522 1522 1521 1521 1521 1521 1521 1521 1521 1522 1522 1523 1523 1523 1523 1523 1523 1524 1524 1525 1526 1527 1527 1527 1527 1528 1528 1528 1528 1528 1529 1529 1530 1529 1530 1530 1530 1529 1529 1529 1527 1526 1526 1526 1526 1526 1526 1526 1525
1533 1533 1533 1533 1533 1533 1534 1534 1534 1533 1533 1533 1532 1532 1531 1530 1529 1528 1527 1526 1525 1524 1524 1524 1523 1523 1523 1523 1523 1523 1523 1523 1523 1523 1523 1524 1524 1524 1524 1524 1524 1524 1524 1525 1525 1526 1527 1527 1527 1527 1527 1527 1527 1527 1526 1526 1527 1527 1527 1527 1528 1528 1527 1527 1527 1526 1525 1524 1524 1524 1524 1524 1524 1523
1534 1533 1533 1533 1533 1534 1534 1534 1535 1534 1534 1534 1533 1532 1532 1531 1530 1529 1528 1527 1527 1526 1525 1525 1525 1524 1524 1524 1524 1524 1524 1524 1524 1524 1524 1524 1525 1525 1524 1524 1525 1525 1525 1525 1525 1525 1525 1525 1525 1526 1526 1525 1525 1525 1525 1525 1525 1525 1525 1525 1525 1525 1525 1525 1525 1525 1524 1523 1522 1522 1522 1522 1522 1521
1534 1534 1533 1533 1533 1534 1534 1534 1535 1535 1535 1535 1534 1533 1533 1531 1530 1530 1529 1528 1528 1527 1527 1526 1526 1526 1526 1525 1525 1525 1525 1525 1525 1524 1524 1524 1524 1524 1525 1525 1525 1525 1525 1525 1525 1524 1523 1523 1523 1523 1523 1523 1523 1523 1523 1523 1523 1523 1523 1523 1523 1523 1523 1523 1523 1523 1522 1522 1522 1521 1520 1520 1520 1519
1535 1535 1535 1535 1535 1535 1535 1535 1536 1536 1535 1535 1535 1534 1533 1532 1531 1531 1530 1529 1529 1528 1528 1528 1527 1527 1527 1527 1527 1526 1526 1525 1525 1525 1524 1524 1524 1524 1524 1524 1524 1524 1524 1524 1524 1524 1523 1523 1522 1522 1521 1521 1521 1521 1521 1521 1521 1521 1521 1522 1522 1521 1521 1521 1521 1521 1520 1520 1520 1519 1519 1519 1518 1518
1537 1537 1537 1537 1537 1537 1537 1537 1537 1536 1536 1536 1535 1534 1534 1533 1532 1531 1531 1530 1530 1529 1529 1529 1528 1528 1528 1528 1528 1527 1527 1526 1526 1525 1525 1525 1524 1524 1524 1524 1524 1524 1523 1523 1524 1524 1523 1523 1522 1521 1520 1519 1519 1519 1519 1519 1519 1520 1520 1520 1520 1520 1520 1519 1519 1519 1518 1518 1518 1518 1517 1517 1516 1516
1539 1539 1539 1539 1539 1539 1539 1538 1538 1537 1537 1537 1536 1535 1534 1533 1533 1532 1531 1531 1531 1530 1530 1530 1529 1529 1529 1528 1528 1528 1528 1527 1527 1526 1526 1525 1524 1524 1524 1523 1524 1524 1523 1523 1523 1523 1522 1521 1520 1520 1519 1518 1518 1518 1517 1517 1517 1517 1518 1518 1518 1518 1518 1517 1517 1517 1516 1516 1515 1515 1515 1515 1514 1514
1540 1540 1540 1540 1540 1540 1540 1539 1539 1538 1537 1537 1536 1535 1535 1534 1533 1532 1531 1531 1531 1531 1530 1530 1530 1529 1529 1528 1528 1528 1528 1527 1527 1527 1526 1525 1524 1524 1523 1523 1523 1523 1522 1522 1522 1521 1520 1519 1519 1518 1517 1517 1517 1517 1516 1516 1516 1516 1516 1516 1516 1515 1515 1515 1515 1515 1514 1514 1513 1513 1512 1512 1512 1511
1541 1541 1541 1541 1540 1540 1540 1540 1539 1538 1538 1538 1537 1536 1535 1534 1533 1532 1531 1531 1531 1531 1530 1529 1529 1529 1528 1527 1527 1527 1527 1527 1526 1525 1524 1524 1524 1523 1523 1522 1522 1521 1521 1521 1521 1519 1518 1518 1517 1517 1516 1516 1515 1515 1515 1514 1514 1515 1514 1514 1513 1513 1513 1513 1513 1513 1512 1512 1511 1511 1510 1509 1509 1508
1541 1540 1540 1540 1540 1540 1539 1539 1539 1538 1538 1538 1537 1536 1536 1535 1534 1533 1532 1531 1531 1530 1529 1529 1528 1528 1527 1526 1526 1526 1525 1525 1524 1523 1523 1523 1522 1522 1521 1521 1520 1520 1520 1520 1519 1518 1518 1517 1516 1516 1515 1515 1514 1514 1513 1513 1513 1513 1513 1512 1512 1511 1511 1511 1511 1511 1510 1510 1509 1509 1508 1508 1507 1506
1540 1540 1540 1539 1539 1539 1539 1538 1538 1538 1538 1538 1537 1536 1536 1535 1534 1533 1532 1531 1530 1530 1529 1529 1528 1527 1526 1526 1526 1525 1524 1524 1523 1523 1522 1522 1522 1521 1521 1520 1519 1519 1519 1518 1518 1517 1517 1517 1516 1515 1515 1514 1513 1513 1513 1513 1513 1513 1512 1511 1510 1510 1510 1509 1509 1509 1509 1508 1508 1507 1507 1506 1505 1505
1540 1540 1540 1539 1539 1539 1538 1538 1538 1537 1537 1537 1536 1536 1536 1536 1534 1533 1532 1531 1530 1529 1529 1528 1528 1527 1526 1525 1525 1524 1524 1523 1523 1522 1522 1521 1521 1520 1520 1519 1519 1518 1518 1518 1517 1516 1516 1515 1515 1514 1514 1513 1513 1513 1512 1512 1512 1511 1511 1511 1510 1509 1509 1508 1507 1507 1507 1507 1506 1506 1505 1504 1504 1503
1540 1540 1540 1539 1539 1539 1538 1538 1538 1537 1537 1536 1535 1534 1534 1534 1533 1532 1531 1530 1529 1528 1527 1527 1527 1526 1525 1525 1524 1524 1523 1522 1522 1522 1521 1521 1520 1520 1519 1519 1518 1517 1517 1516 1515 1514 1514 1513 1513 1513 1512 1512 1512 1512 1511 1511 1510 1510 1510 1509 1509 1508 1507 1506 1505 1505 1505 1504 1504 1504 1503 1502 1502 1501